Wind_Speed
16 15 14 13 12 11 9 6 3 1 5 8 9 9 10 10 11 11 11 9 10 10 9 10 10 10 11 11 10 9 9 8 7 7 6 4 3 3 3 3 4 3 3 3
17 16 15 16 15 14 11 8 5 3 4 6 8 9 10 10 11 11 11 8 9 8 8 9 9 10 11 10 10 10 9 8 7 7 7 5 4 4 4 5 5 4 4 4
18 17 17 17 16 15 13 10 7 6 6 6 8 9 10 9 10 12 10 9 8 8 8 9 9 9 10 11 11 10 9 8 7 7 7 6 5 5 5 5 6 5 5 5
21 20 20 18 18 17 15 12 11 9 8 8 9 10 10 10 11 11 10 10 10 8 9 9 9 10 11 11 11 9 9 9 8 7 8 7 7 6 5 4 5 5 4 4
22 22 21 20 18 17 16 16 14 12 11 9 10 11 10 12 12 10 9 10 10 9 9 9 9 10 11 11 10 10 10 10 9 8 8 8 7 6 5 4 4 4 3 4
23 23 22 20 19 18 17 17 15 13 12 10 11 11 11 11 10 9 8 9 10 10 10 9 9 10 10 10 10 10 10 10 9 9 8 8 8 7 5 5 4 5 4 4
24 23 22 21 20 19 18 17 15 14 12 10 10 10 9 9 9 8 8 9 9 10 10 10 10 10 10 10 10 10 10 10 10 9 9 8 7 7 6 5 5 5 5 5
26 24 22 21 21 19 19 18 16 15 13 10 10 10 10 9 9 8 8 8 9 8 9 10 9 10 10 10 11 11 10 10 10 9 9 8 7 6 6 5 6 6 6 6
26 24 23 23 22 20 19 19 18 17 15 12 11 11 11 10 9 9 8 8 8 7 9 10 10 10 10 10 10 11 11 11 10 9 8 8 7 7 7 6 6 6 7 7
26 25 24 23 23 21 19 19 20 19 17 15 13 12 12 12 11 9 7 7 7 8 9 10 10 10 10 11 11 11 11 10 10 9 9 8 8 8 8 7 8 7 8 8
28 27 25 25 24 21 20 20 21 20 19 17 15 14 13 12 10 9 8 8 7 8 10 11 10 11 10 10 11 11 11 11 11 10 9 9 8 9 8 8 8 8 8 8
28 28 27 27 24 21 20 20 21 21 20 19 18 16 15 13 12 12 12 10 8 8 10 10 10 10 10 10 10 11 11 11 11 10 10 10 9 9 8 8 9 9 9 8
30 30 28 28 26 24 22 21 21 22 23 22 20 17 16 16 14 14 13 11 10 9 10 11 11 11 10 10 10 11 12 11 10 10 11 11 11 10 10 9 10 9 10 10
31 32 30 28 26 25 23 22 22 23 24 24 22 19 18 17 16 17 16 13 13 12 11 13 13 13 12 11 11 11 12 11 10 11 11 12 12 11 11 10 10 10 10 10
33 33 31 29 28 27 25 24 23 23 23 24 23 22 20 19 19 19 18 15 14 13 13 14 14 14 13 12 12 11 12 12 11 11 12 12 12 11 11 11 11 10 11 11
34 35 33 31 31 31 29 27 25 24 23 23 24 23 22 20 20 19 18 15 14 15 15 15 15 15 13 12 12 12 12 12 13 13 12 13 12 12 12 12 12 12 12 12
35 34 34 33 33 33 33 29 27 26 25 24 24 23 23 23 21 20 19 18 18 19 18 17 16 15 13 12 12 12 12 13 13 13 13 13 13 13 13 13 13 13 13 14
34 34 34 34 34 37 33 31 29 27 26 26 25 25 25 25 24 23 21 20 20 20 19 18 17 15 14 13 12 12 12 14 14 14 14 14 14 14 14 14 14 14 14 14
35 35 34 34 35 36 33 32 31 29 28 28 27 25 26 26 25 23 23 22 21 20 20 19 18 17 15 14 13 13 14 15 15 15 16 15 15 15 14 15 15 15 15 15
37 36 36 36 36 37 34 33 32 31 31 30 28 28 27 26 25 24 23 23 22 21 21 20 17 17 16 15 15 15 16 17 17 16 16 16 16 16 16 16 16 16 16 16
38 37 36 36 36 36 34 35 34 34 33 31 30 29 29 28 26 25 24 23 23 23 22 21 20 18 17 17 16 16 17 17 17 17 18 18 17 16 17 17 17 17 18 18
38 37 36 36 36 35 33 34 36 36 34 33 32 31 30 29 28 28 26 25 24 24 22 22 21 20 19 18 18 18 18 19 18 19 19 18 18 18 18 18 18 18 19 19
40 39 37 37 36 34 34 35 35 36 35 34 33 32 31 30 30 28 27 26 25 25 24 23 22 22 21 20 21 20 20 20 20 20 20 20 20 20 20 19 19 19 20 20
41 39 39 39 37 35 35 36 36 36 35 34 33 31 30 30 29 29 28 27 25 24 23 23 23 23 22 22 22 21 21 21 21 21 21 21 21 21 21 21 21 20 20 20
40 39 39 39 38 37 36 35 35 35 33 32 33 32 31 30 29 27 27 27 25 24 24 25 24 24 23 23 23 22 22 21 21 21 22 22 22 22 22 22 21 21 21 22
41 39 39 38 37 37 36 36 37 36 35 34 34 32 30 30 30 29 29 28 27 26 25 24 24 24 24 24 23 23 23 22 22 22 22 22 22 23 23 22 22 22 23 23
Wind_Direction
207 203 198 195 191 187 170 151 149 306 306 308 313 325 339 359 3 0 358 3 12 14 13 18 21 22 23 22 19 18 16 15 15 15 15 12 352 330 320 322 306 289 269 253
210 207 204 202 201 194 181 177 183 234 276 285 293 306 321 341 347 348 348 356 8 11 11 10 14 17 14 15 13 10 9 12 12 12 9 4 347 331 321 309 318 294 265 248
212 210 210 208 204 200 194 195 207 222 233 252 282 296 305 316 330 346 352 359 4 9 6 11 11 10 9 9 6 3 1 360 2 2 0 354 338 328 324 313 303 299 272 255
214 213 214 211 208 208 205 205 211 219 232 253 273 286 299 308 322 338 348 356 360 2 10 7 10 9 4 2 1 358 359 359 357 357 355 353 343 334 327 317 303 296 282 263
215 217 218 214 210 209 209 213 219 224 231 247 261 270 289 304 313 326 339 347 353 0 4 4 360 0 360 360 359 358 357 356 353 351 352 353 347 338 328 318 306 299 292 275
217 219 219 216 212 212 215 220 224 228 231 238 251 262 283 298 307 314 330 340 341 349 349 347 358 356 356 356 355 354 353 352 349 347 347 347 346 339 330 323 312 300 288 279
218 219 220 218 215 215 218 223 225 224 225 229 245 262 281 288 295 305 323 332 334 344 347 349 352 356 349 353 355 354 352 351 350 349 347 345 344 339 330 321 311 304 294 285
219 216 217 218 219 219 221 224 225 223 220 225 239 263 278 284 287 293 311 322 330 342 345 347 357 354 355 354 357 353 350 348 347 345 344 344 341 339 334 329 317 308 304 294
219 217 217 219 219 218 220 224 226 225 221 227 242 264 275 279 277 279 289 300 322 336 341 347 350 350 351 351 354 353 348 348 347 346 343 343 346 344 338 332 322 308 303 297
218 218 218 218 218 217 220 222 223 224 222 230 246 260 276 275 267 270 268 284 315 330 339 340 339 339 343 348 351 354 352 350 353 351 348 345 340 338 334 332 328 312 301 297
218 218 215 217 219 216 218 221 224 225 226 231 244 258 275 280 285 288 286 292 312 324 335 334 331 330 335 340 344 349 354 355 353 351 345 341 338 336 335 335 330 324 312 307
215 218 215 216 217 216 219 223 228 229 228 232 243 255 268 280 292 294 300 303 311 318 328 324 321 322 329 337 335 337 345 350 350 350 344 341 340 338 335 332 329 326 318 310
213 217 215 215 216 217 218 220 227 230 231 232 238 250 262 275 286 287 295 301 306 314 316 318 315 320 328 331 332 332 335 343 348 349 344 340 338 334 331 326 325 323 321 317
215 219 218 217 217 221 222 223 226 231 233 232 235 243 255 268 276 285 290 295 304 310 315 316 317 319 321 323 325 330 336 334 340 342 341 338 338 338 336 331 328 326 324 322
216 218 218 215 215 219 223 225 227 231 232 233 233 237 247 258 268 277 284 292 303 307 312 313 314 316 314 316 320 324 331 332 333 337 337 336 335 335 333 330 327 324 323 320
217 219 219 217 215 219 224 227 229 230 229 230 233 238 243 253 263 273 282 293 299 302 304 306 310 312 307 309 315 318 322 327 326 328 330 332 336 335 333 331 326 323 321 319
220 220 220 218 217 221 224 227 230 231 230 230 234 239 243 251 260 271 279 286 289 294 297 301 306 305 300 302 308 313 317 320 324 325 326 328 330 330 329 327 324 322 320 319
223 222 221 220 217 221 224 226 230 231 231 232 236 239 243 250 257 265 273 279 284 289 293 297 299 297 295 298 302 308 312 317 319 320 322 324 326 326 326 325 323 320 319 318
225 224 222 220 220 223 224 224 227 230 230 231 235 241 245 248 254 262 269 275 280 282 287 290 291 290 291 295 301 305 309 312 314 316 317 318 319 320 321 323 322 320 319 319
224 225 225 223 223 224 223 224 226 229 231 233 237 241 245 249 256 265 269 274 278 278 284 285 283 286 288 292 297 300 304 306 308 310 312 312 312 314 315 317 319 320 320 319
223 224 224 224 225 225 223 224 226 230 234 236 240 244 248 253 258 263 267 271 275 278 280 283 284 287 289 291 293 296 300 303 305 306 307 308 309 309 312 314 315 316 317 316
222 224 224 225 227 225 224 224 226 231 234 236 241 245 249 252 256 261 264 267 271 273 274 278 282 284 286 288 290 292 295 299 302 303 304 306 307 308 310 312 312 312 313 313
221 223 225 227 229 227 225 225 226 231 235 239 241 244 249 253 256 259 262 264 268 270 272 274 278 282 284 286 288 289 291 295 298 300 301 303 304 305 306 307 308 309 311 311
222 224 226 227 228 227 225 226 228 232 236 241 242 244 248 252 255 259 263 265 266 268 269 272 276 279 282 285 287 288 289 291 293 296 298 300 301 303 304 304 305 305 307 308
226 227 227 229 230 228 227 228 230 232 236 240 242 244 247 251 254 259 263 265 267 270 272 273 276 278 280 282 285 286 287 289 291 294 296 297 299 301 302 303 304 304 305 306
226 227 229 231 232 231 229 229 231 232 236 240 243 245 247 252 257 260 264 266 268 270 271 273 274 277 279 282 283 285 286 288 290 291 293 295 297 299 301 301 302 303 303 304
Height
5926 5929 5930 5932 5933 5934 5934 5935 5936 5937 5937 5937 5936 5935 5935 5935 5934 5933 5932 5931 5929 5927 5926 5925 5923 5922 5920 5918 5916 5914 5913 5911 5910 5909 5908 5907 5906 5905 5904 5904 5904 5904 5904 5904
5924 5926 5928 5929 5931 5932 5933 5934 5935 5936 5936 5935 5935 5934 5934 5934 5934 5933 5932 5931 5929 5928 5926 5925 5923 5921 5920 5918 5916 5914 5912 5911 5909 5908 5907 5906 5905 5904 5903 5903 5902 5902 5902 5902
5921 5924 5925 5927 5928 5930 5931 5932 5934 5934 5934 5934 5934 5933 5933 5933 5933 5933 5932 5930 5929 5928 5926 5925 5923 5921 5920 5918 5916 5914 5912 5910 5908 5907 5906 5905 5904 5903 5902 5901 5901 5900 5900 5900
5917 5920 5922 5924 5926 5928 5929 5931 5932 5932 5932 5933 5933 5933 5932 5931 5931 5932 5931 5930 5928 5927 5927 5924 5922 5921 5919 5917 5915 5913 5912 5909 5908 5906 5905 5904 5903 5901 5900 5899 5899 5899 5899 5899
5913 5916 5918 5921 5923 5925 5927 5928 5929 5930 5931 5931 5931 5931 5932 5930 5930 5931 5930 5929 5928 5927 5926 5925 5922 5921 5919 5917 5915 5913 5911 5909 5907 5905 5904 5903 5901 5900 5899 5898 5898 5897 5897 5897
5909 5912 5914 5918 5920 5922 5924 5926 5927 5928 5929 5930 5930 5930 5930 5929 5929 5929 5929 5928 5928 5926 5925 5923 5921 5920 5918 5916 5914 5912 5910 5908 5906 5904 5903 5901 5900 5899 5898 5897 5896 5896 5896 5896
5904 5908 5911 5914 5916 5919 5921 5924 5925 5926 5927 5928 5928 5928 5929 5927 5927 5927 5927 5927 5927 5925 5924 5922 5921 5919 5917 5915 5913 5911 5909 5907 5905 5903 5902 5900 5899 5897 5897 5896 5895 5895 5894 5894
5899 5904 5907 5910 5913 5915 5918 5920 5923 5924 5925 5925 5925 5925 5926 5925 5926 5926 5926 5926 5925 5924 5923 5921 5919 5918 5916 5914 5912 5910 5908 5906 5903 5902 5900 5899 5897 5896 5895 5894 5894 5893 5892 5892
5894 5899 5903 5905 5908 5911 5914 5916 5919 5921 5921 5922 5922 5923 5923 5923 5923 5923 5924 5924 5924 5922 5921 5920 5918 5916 5915 5913 5911 5909 5907 5905 5902 5900 5898 5897 5896 5895 5894 5893 5892 5891 5890 5890
5889 5894 5898 5901 5904 5907 5910 5912 5914 5916 5918 5919 5919 5920 5920 5920 5920 5920 5921 5922 5922 5921 5920 5918 5917 5915 5914 5912 5910 5908 5906 5904 5901 5899 5897 5896 5894 5893 5892 5891 5890 5889 5888 5888
5884 5889 5893 5895 5899 5902 5906 5908 5910 5912 5914 5916 5916 5919 5918 5917 5918 5918 5918 5919 5919 5918 5918 5917 5915 5914 5913 5911 5910 5908 5905 5903 5900 5898 5896 5895 5893 5892 5890 5889 5888 5887 5886 5885
5878 5883 5887 5891 5895 5898 5901 5904 5906 5909 5911 5912 5913 5917 5914 5914 5915 5916 5916 5916 5916 5916 5915 5915 5914 5912 5911 5909 5908 5906 5904 5901 5899 5897 5895 5893 5892 5890 5889 5887 5886 5885 5883 5882
5873 5877 5882 5886 5891 5893 5896 5899 5902 5904 5906 5908 5910 5913 5911 5911 5912 5912 5913 5913 5913 5913 5913 5912 5911 5910 5908 5907 5905 5904 5901 5899 5898 5896 5894 5892 5890 5888 5887 5885 5884 5883 5882 5880
5868 5871 5877 5882 5885 5888 5891 5895 5897 5899 5901 5904 5906 5908 5908 5909 5909 5909 5909 5909 5910 5910 5910 5910 5909 5908 5906 5905 5903 5901 5900 5897 5896 5894 5892 5890 5888 5887 5885 5883 5882 5881 5879 5878
5861 5866 5871 5876 5880 5883 5886 5889 5892 5894 5897 5899 5902 5903 5905 5906 5906 5906 5906 5906 5907 5907 5907 5907 5906 5905 5904 5903 5901 5899 5898 5896 5894 5892 5890 5888 5886 5885 5883 5882 5880 5878 5877 5875
5855 5860 5865 5871 5875 5878 5881 5884 5887 5890 5892 5894 5896 5899 5901 5902 5902 5902 5903 5903 5904 5904 5904 5904 5903 5902 5901 5900 5899 5897 5896 5894 5892 5890 5889 5887 5885 5883 5881 5879 5878 5876 5874 5872
5850 5855 5860 5865 5869 5872 5875 5880 5882 5884 5887 5889 5891 5895 5896 5897 5898 5899 5900 5901 5901 5901 5901 5900 5899 5898 5898 5897 5896 5895 5893 5892 5890 5888 5887 5885 5883 5881 5879 5877 5875 5873 5871 5869
5844 5849 5854 5859 5864 5866 5872 5875 5877 5880 5882 5884 5887 5889 5891 5893 5895 5896 5897 5898 5897 5897 5896 5896 5895 5894 5894 5893 5892 5891 5890 5889 5887 5886 5884 5882 5880 5878 5876 5874 5872 5870 5867 5865
5839 5843 5847 5852 5856 5860 5866 5869 5872 5874 5876 5879 5882 5885 5887 5888 5890 5892 5893 5893 5893 5892 5892 5892 5891 5891 5890 5889 5889 5888 5887 5886 5884 5882 5881 5879 5877 5875 5873 5871 5869 5866 5864 5862
5832 5837 5841 5845 5849 5853 5860 5864 5866 5869 5870 5873 5876 5879 5881 5883 5886 5888 5888 5888 5888 5887 5887 5887 5886 5886 5885 5885 5884 5884 5883 5882 5880 5879 5877 5875 5873 5871 5869 5867 5865 5863 5861 5858
5825 5829 5834 5838 5842 5847 5853 5857 5860 5863 5865 5868 5871 5874 5876 5879 5881 5883 5883 5883 5883 5883 5883 5883 5883 5882 5882 5882 5881 5880 5879 5878 5876 5875 5873 5871 5869 5868 5866 5864 5861 5859 5857 5854
5818 5822 5827 5831 5835 5843 5847 5850 5854 5856 5859 5862 5865 5868 5871 5873 5875 5876 5878 5878 5878 5878 5878 5878 5878 5878 5878 5877 5877 5876 5875 5873 5872 5871 5869 5867 5865 5863 5861 5859 5857 5855 5853 5850
5809 5815 5820 5825 5830 5835 5839 5843 5846 5850 5853 5856 5859 5862 5864 5867 5868 5870 5871 5872 5872 5872 5872 5873 5873 5873 5872 5872 5871 5871 5870 5869 5867 5866 5864 5862 5860 5859 5857 5855 5853 5850 5848 5846
5802 5807 5812 5816 5821 5826 5831 5835 5839 5843 5846 5849 5852 5855 5858 5860 5862 5863 5865 5866 5866 5866 5866 5867 5867 5867 5866 5866 5865 5865 5864 5863 5862 5860 5859 5857 5855 5854 5852 5850 5848 5846 5843 5841
5795 5800 5805 5809 5814 5819 5824 5828 5833 5836 5839 5842 5845 5847 5850 5853 5855 5857 5858 5859 5860 5860 5860 5860 5860 5860 5860 5860 5859 5859 5858 5857 5856 5855 5853 5852 5850 5848 5846 5844 5842 5840 5838 5835
5788 5793 5798 5802 5807 5812 5817 5821 5825 5829 5832 5835 5838 5841 5843 5845 5847 5849 5851 5852 5853 5853 5853 5854 5854 5854 5854 5853 5853 5852 5852 5851 5850 5849 5848 5846 5844 5842 5841 5839 5837 5834 5832 5830